TITAN 3C TRANSTAGE DEB, 1961

Orbit data source: Space-Track

TITAN 3C TRANSTAGE DEB, 1961 is space debris in LEO originally from a launch on Fri, 15 Oct 1965 UTC launched from the Air Force Eastern Test Range (AFETR). Debris objects in space refer to the collection of defunct objects orbiting the Earth. Examples of debris include non-operational satellites, rocket bodies, and fragments generated from explosions, collisions, or faulty payload assembly.

Loading next visibility...
Identifier
1961, 1965-082GW
Orbit
LEO
Last TLE update
1 day ago
Origin
Manufacturer
Unknown
Mission
Spacecraft
Bus & Motor
Unknown
Mass
Unknown
Launch date (UTC)
1965-10-15 (60 years ago)
Launch vehicle
Unknown
Launch site
Air Force Eastern Test Range (AFETR)
Object type
Payload
Rocket body
Debris
Shape & HBR
Unknown
Radar Cross Section
Small (<0.1 m²)

Expand to show TLE details & history

TLE from 1 day ago
0 TITAN 3C TRANSTAGE DEB
1  1961U 65082GW  25199.54016146  .00003862  00000-0  22391-3 0  9990
2  1961  31.8581 271.7491 0003218 189.3334 170.7261 15.10674283214997
Epoch: 2025-07-18T12:57Z
TLE epoch observation values (Epoch: 2025-07-18T12:57:49.95Z)
Latitude
0.00002°
Longitude
140.70085°
Altitude
534.93 km
Speed
7.596 km/s
True Right ascension
18h 06m 59s
True Declination
0° 00' 00"
Sunlit
Object was in full shadow at epoch
Visualization orbit readout
Latitude
-17.72845°
Longitude
103.20474°
Altitude
537.938 km
Speed
7.594 km/s
Apparent Right ascension
15h 21m 39s
Apparent Declination
-28° 17' 23"
Sunlit
Object is in full shadow
Visualization observer readout
Local Sidereal Time
03:00:59
Azimuth
338.297° N
Elevation
-77.618°
Doppler factor
1
Orbital elements
Apogee altitude
540.083 km
Perigee altitude
535.631 km
Semi-major axis
6,915.994 km
Eccentricity
0.00032
Inclination
31.8581°
RAAN
271.7491°
Arg. of periapsis
189.3334°
True anomaly
170.73204°
Mean anomaly
170.7261°
Eccentric anomaly
170.72907°
Mean motion
3.77365 °/min
Orbital period
95.4 mins
BSTAR
0.00022391
Loading maneuver chart data...
Loading SW <> Apogee altitude chart data...
|